Dewpoint
25 12 13 12 17 11 10 17 15 11 9 13 16 15 12 12 10 11 12 24 24 20 12 11 12 9 9 7 10 11 12 13 13 14 15 16 16 17 17 17 17 17 17 20 20 19 20 21 21 23 24 25 28 31 33 34 34 36 40 49 53 53 49 48 47 49 48 48 48 48 45 44 45 44 41 40 38 36 35 34 32 36 34 34 34 34
17 12 15 15 9 12 13 13 12 11 12 12 14 16 11 13 7 9 8 22 25 17 8 7 9 12 8 10 11 11 12 13 13 14 15 15 16 16 18 18 18 17 19 18 17 17 17 18 21 21 21 24 24 26 27 29 31 34 37 38 43 48 53 50 48 48 48 48 48 47 45 45 43 43 43 41 38 36 35 35 36 36 35 36 33 33
16 13 15 15 13 13 15 14 15 15 17 15 11 10 11 8 10 7 24 17 17 19 12 8 7 7 7 10 11 12 14 15 16 16 15 15 16 17 17 18 18 17 17 16 16 17 16 17 18 18 19 20 21 22 24 25 27 30 32 35 39 43 45 52 49 50 49 49 47 46 45 44 44 44 42 43 44 39 40 37 39 40 39 38 33 34
8 9 12 14 13 10 5 11 17 17 18 13 6 4 5 9 10 5 16 16 13 13 10 7 4 5 10 12 13 14 14 16 17 18 18 19 17 17 18 19 18 17 17 16 16 15 15 15 15 16 17 18 20 20 20 21 23 25 28 28 34 39 41 41 47 49 49 49 47 47 46 44 42 42 43 44 42 40 38 38 39 37 34 36 35 33
8 12 13 16 16 12 12 11 13 13 6 10 15 13 10 12 8 9 6 10 15 17 19 15 13 10 12 10 11 14 15 16 17 16 17 18 19 19 20 19 19 17 17 16 15 16 16 15 14 15 15 15 17 18 18 19 20 22 23 25 28 33 35 38 39 41 48 49 48 47 45 46 42 40 40 39 39 38 39 37 36 34 35 36 33 34
13 15 17 18 13 13 14 12 11 17 6 1 9 9 10 12 10 7 7 7 4 -1 15 18 -2 -12 9 8 11 13 14 15 16 17 16 16 16 18 17 18 18 18 17 15 14 16 17 16 15 14 15 14 14 14 17 18 19 20 21 22 23 27 30 32 34 38 40 45 48 45 43 41 40 39 39 38 37 37 37 37 36 35 34 33 32 33
14 15 15 14 12 15 17 13 12 14 3 5 5 15 12 7 7 9 7 8 2 -1 6 14 -7 -3 5 5 9 13 15 15 16 16 15 14 15 16 17 17 18 17 17 16 15 15 15 16 16 15 15 15 13 12 14 14 16 18 19 20 21 22 24 26 29 35 37 39 41 45 45 42 41 39 39 38 40 39 37 40 38 37 34 33 31 33
14 16 13 15 10 13 11 3 15 9 11 1 15 14 13 10 8 9 9 7 1 7 9 8 -1 -4 -4 -4 12 13 14 14 14 15 14 14 14 15 15 16 17 17 17 17 16 15 15 16 16 15 15 15 14 15 15 14 14 14 16 18 19 19 21 21 23 27 33 36 38 38 39 43 44 43 40 41 40 37 37 37 36 36 35 33 36 33
14 14 15 12 13 5 1 10 12 14 9 9 14 15 12 12 9 10 6 2 2 0 1 -3 7 -2 -0 0 12 13 12 13 13 13 14 14 15 15 16 16 16 17 18 17 17 16 16 16 17 16 15 15 16 16 15 14 14 14 15 17 15 15 17 18 20 21 25 32 35 36 36 36 38 40 43 46 45 43 38 37 35 34 34 33 35 35
20 11 17 14 12 3 13 10 11 16 8 19 16 18 16 16 14 13 6 3 2 0 3 -2 0 -1 -4 10 10 9 12 13 13 14 14 15 15 16 16 15 15 15 17 17 17 17 16 16 17 17 17 17 17 17 17 15 15 15 16 16 15 15 13 15 16 17 18 23 30 33 33 34 35 36 37 38 40 40 39 37 36 33 33 33 33 33
16 23 22 16 12 15 11 12 18 13 14 20 18 14 12 10 9 7 5 4 7 4 3 4 1 -5 -7 -1 5 5 13 14 13 13 14 16 16 15 15 13 14 14 15 16 17 18 17 16 16 16 16 16 17 17 17 16 14 15 16 16 16 15 14 13 13 15 15 17 18 23 28 30 31 34 35 36 36 38 39 39 37 35 34 33 32 33
22 23 20 19 22 19 13 14 19 19 18 17 9 4 2 2 -3 0 4 3 2 -0 -1 -3 -2 2 -4 1 10 13 16 17 14 13 13 15 16 16 15 14 14 14 15 16 16 17 17 17 16 16 16 15 15 15 16 15 15 15 15 15 15 14 14 14 13 13 12 13 15 16 17 19 26 31 33 34 35 36 37 37 39 38 35 33 32 31
1 9 16 23 22 15 19 13 4 18 17 13 8 3 -0 -1 -1 -4 -6 3 2 2 -4 -5 0 -6 -9 7 14 13 13 14 16 15 14 15 15 15 15 15 15 15 15 16 16 18 18 16 15 16 16 15 14 12 14 15 15 13 13 13 13 14 13 13 12 12 11 11 12 12 14 15 18 20 28 33 34 35 36 37 37 37 38 37 33 31
-6 18 17 19 16 20 17 -5 -10 -7 2 2 -4 3 0 -4 -2 -1 -7 -4 -6 -5 -6 -6 1 -8 7 10 12 10 11 13 13 14 15 15 15 15 15 16 14 15 16 16 18 18 18 16 16 15 16 15 13 12 12 13 12 12 12 12 12 13 13 12 12 11 10 9 10 11 12 13 14 16 18 20 29 33 34 36 36 37 37 38 37 33
-1 -7 7 11 -1 22 12 5 7 4 2 0 7 1 4 2 1 -2 -3 -4 -1 -3 -6 -3 0 3 -5 11 11 11 12 12 12 13 15 15 16 17 16 15 14 14 12 15 19 20 17 15 14 14 14 14 13 12 12 13 12 11 9 8 7 11 13 11 11 10 9 9 8 8 10 12 12 14 15 15 17 19 29 33 34 36 37 38 38 37
1 -2 3 13 13 15 12 15 15 13 5 -1 4 4 2 2 -0 -0 2 2 3 0 -2 3 3 11 8 10 12 14 12 13 13 13 14 15 14 16 16 15 15 15 13 15 16 16 16 15 14 13 11 11 11 11 11 11 13 12 10 8 7 8 10 10 10 8 8 8 7 8 8 10 11 13 14 14 15 16 17 19 28 33 35 36 37 37
2 -10 9 12 17 7 6 14 17 12 -3 -10 -5 -0 -1 3 -1 3 1 -3 -2 0 -1 6 -4 9 11 11 11 12 13 12 12 11 11 13 13 15 16 16 15 14 15 14 13 11 14 14 12 12 10 10 10 10 9 10 11 11 8 7 6 7 7 7 8 8 7 6 6 8 8 8 8 10 12 13 15 16 16 17 18 20 26 33 36 36
7 2 7 5 -0 15 15 14 17 17 11 5 3 -1 11 8 10 7 -2 1 1 -1 -2 -6 -2 1 6 7 11 11 12 12 11 11 10 10 9 11 13 14 12 14 14 9 8 8 10 14 12 11 9 8 8 9 9 9 10 10 8 5 5 5 7 8 6 5 6 4 5 6 7 6 7 9 11 13 15 16 16 16 16 17 18 22 28 32
8 4 -2 -2 4 16 19 18 15 18 20 5 -1 18 5 1 0 -1 3 -1 -2 -1 -1 -2 -2 0 9 14 11 11 12 12 11 10 10 9 9 10 9 10 11 13 12 8 8 7 9 11 12 11 7 6 6 7 9 9 10 8 5 4 4 4 5 7 7 4 3 2 7 9 6 6 7 8 11 13 16 15 16 16 16 16 18 18 20 24
7 6 1 5 0 6 3 9 5 -7 19 19 16 7 11 3 8 4 4 8 4 1 2 3 8 -3 9 15 14 12 12 11 10 9 9 8 8 9 8 7 6 9 10 8 7 6 7 10 8 9 7 6 6 7 8 7 7 5 3 2 2 2 3 4 4 3 2 2 3 4 4 5 7 9 9 10 11 13 15 17 17 17 17 17 19 20
11 5 1 -1 3 4 -1 -11 -13 -6 3 0 -2 6 8 11 8 8 9 6 3 2 1 1 0 3 9 12 11 12 12 11 12 10 10 8 7 7 3 2 4 3 5 6 7 6 6 9 10 9 7 7 5 6 7 5 4 3 2 1 1 2 3 2 3 3 3 2 2 4 3 5 8 6 6 8 9 12 15 16 17 17 18 19 19 20
10 -2 -1 -5 -5 -4 -5 0 -2 2 4 2 3 5 3 4 4 3 3 11 11 6 5 5 4 6 10 12 12 11 12 12 11 11 10 7 4 1 -2 -3 -3 -1 -2 2 5 5 6 7 9 6 7 7 3 4 3 4 4 3 2 1 1 2 3 3 3 3 3 3 3 2 3 4 5 4 7 8 10 12 12 14 16 17 19 20 21 21
15 7 5 7 3 4 3 2 7 9 8 7 4 3 7 11 13 9 4 6 12 11 13 8 3 -2 15 14 13 12 13 13 12 11 8 4 -1 -3 -3 -2 -2 -2 -3 -3 0 4 5 5 6 5 2 4 3 3 2 3 2 2 2 2 2 2 2 4 3 3 3 3 3 3 3 4 4 6 7 7 9 10 11 13 15 18 21 22 23 23
19 12 9 6 -0 2 3 8 5 8 10 8 4 6 12 14 15 12 11 11 7 7 4 1 -1 4 13 17 16 14 13 13 11 6 4 1 -1 -4 -4 -3 -3 -3 -3 -3 -3 -2 3 4 2 2 2 1 2 2 1 0 1 2 1 -2 -0 1 2 2 3 4 3 4 4 4 4 3 4 6 6 5 6 8 10 13 17 19 20 22 22 21
13 4 2 7 7 3 -4 -6 0 7 6 3 8 7 14 15 15 15 15 13 8 8 3 1 -1 0 14 16 18 12 10 8 7 4 3 1 -0 -1 -2 -2 -2 -3 -3 -6 -4 -4 1 1 0 -0 -1 1 2 -0 -2 -0 1 1 2 2 -0 -1 -0 3 3 3 3 2 3 5 5 6 5 4 4 4 5 8 11 14 17 19 20 21 21 20
18 13 9 5 2 0 -1 0 2 3 7 7 6 8 15 17 16 11 4 6 1 2 8 4 1 8 10 15 13 10 9 7 6 4 2 1 -1 -1 -0 -1 -2 -2 -5 -6 -5 -2 -0 1 1 -1 -1 -0 -1 1 -1 -0 0 1 1 1 -0 -1 0 2 4 2 3 4 3 4 8 7 4 4 2 3 6 9 14 16 17 18 18 17 17 18
20 15 10 9 8 5 7 7 6 10 6 8 9 14 13 15 17 15 11 6 3 8 6 5 7 6 6 7 9 8 7 4 2 1 -1 -3 -4 -3 -3 -3 -2 -3 -5 -5 -4 -2 -0 3 0 -1 1 1 1 -2 0 0 -1 0 1 1 1 1 1 1 3 6 6 6 5 9 7 5 3 3 4 5 8 12 14 16 16 15 14 14 14 15
18 15 12 11 10 8 7 7 7 8 5 4 9 12 11 12 14 14 8 7 9 5 -0 6 6 6 5 7 6 6 5 3 1 -1 -2 -3 -2 -3 -5 -4 6 -4 -5 -4 -3 1 4 5 4 3 3 2 1 1 0 0 2 2 2 2 0 2 -0 1 4 6 9 7 8 7 7 5 5 5 7 10 12 13 14 14 12 11 11 12 13 14
16 13 16 18 18 14 10 6 5 3 3 1 8 7 9 10 9 9 9 7 7 4 2 4 4 4 2 9 5 5 3 2 0 0 0 0 1 -1 -0 -1 -2 -1 -2 -2 -0 2 3 4 4 4 3 2 2 1 1 1 1 1 2 2 3 3 4 2 5 7 8 8 7 7 7 8 8 10 11 12 12 12 12 11 9 10 11 12 13 15
16 10 20 18 13 9 8 7 3 2 -1 3 8 4 4 5 6 8 6 5 4 3 1 1 2 1 1 7 3 2 2 1 -0 -1 -1 -0 -1 1 1 2 2 0 1 1 1 3 4 5 5 4 4 3 3 2 3 2 1 2 2 2 2 3 4 6 6 6 7 8 8 8 9 11 12 12 12 11 10 10 9 8 9 11 12 13 13 15
19 12 18 16 14 12 6 3 1 -1 1 6 2 2 1 2 3 3 6 5 4 0 0 0 1 2 4 3 3 2 1 1 -0 -1 -1 -3 1 2 2 2 0 1 0 1 2 3 5 5 5 4 5 5 5 5 4 4 3 3 2 2 4 6 6 6 6 7 8 9 10 12 13 13 12 11 7 7 8 8 9 8 9 11 11 12 13 14
20 14 16 13 7 5 1 -3 -0 -1 -3 4 2 1 0 1 4 3 3 1 0 2 2 2 1 0 2 3 3 2 2 1 -1 -0 -3 -2 -0 1 2 1 1 1 -0 0 1 3 3 3 3 4 6 7 8 7 6 5 4 5 4 4 5 5 6 8 8 8 10 13 14 13 13 11 9 7 6 7 8 8 8 8 9 10 11 12 12 13
18 16 13 7 5 4 -1 0 -0 -4 -10 -1 4 2 2 1 1 -0 0 0 1 0 1 -2 -1 4 7 7 3 1 -1 -2 -1 -3 -4 -3 -2 -3 -2 -2 -1 1 1 -0 0 1 0 -1 -0 -1 5 8 7 7 7 6 6 6 6 4 4 5 6 7 10 14 14 14 13 13 10 9 7 6 6 9 8 8 9 8 8 10 10 11 11 12
20 17 11 8 6 3 2 3 -2 -6 -9 -1 6 5 4 2 2 2 2 2 1 2 2 3 5 9 7 3 1 -2 -1 -0 -2 -3 -3 -4 -4 -2 -2 0 1 0 1 1 -0 -2 -1 -1 1 4 8 9 8 9 10 10 8 7 5 4 5 6 8 11 14 15 14 12 11 9 8 8 7 8 8 8 8 8 8 8 8 9 10 11 11 12
18 14 9 12 7 4 6 -0 -5 -8 1 7 6 6 6 5 4 4 4 2 3 0 -0 5 9 6 3 1 -1 -1 2 1 -0 -1 -2 -3 -4 -5 -1 -4 -1 4 3 1 -2 -1 0 3 8 13 12 9 10 11 10 9 7 6 5 7 8 9 9 13 15 14 12 11 10 10 9 8 8 8 8 8 8 9 8 7 8 9 10 10 10 11
12 9 8 7 5 5 1 -4 -9 -9 6 7 7 6 7 6 5 3 2 2 -0 -1 4 8 5 -0 -3 -2 -1 -0 -1 -2 -2 -2 -3 -4 -7 -7 -5 -0 2 3 2 2 3 5 9 11 12 11 11 11 10 9 8 8 7 7 8 10 11 12 12 13 12 12 12 11 11 10 8 8 9 9 9 8 8 8 7 7 8 8 8 9 9 10
8 8 5 3 7 -0 -2 -4 -6 -6 2 4 3 6 8 6 5 3 -1 0 1 8 4 2 0 0 0 -0 0 -1 -1 -1 -2 -4 -5 -5 -6 -12 -2 3 4 4 3 6 8 8 8 9 10 10 9 9 7 7 7 7 8 9 11 10 10 9 8 6 8 9 10 11 9 9 9 9 9 9 9 8 8 7 7 7 7 8 8 9 9 10
3 5 2 2 -0 -1 -6 -7 -7 -8 -10 -5 5 9 8 4 3 2 3 -1 8 6 0 0 1 2 0 -0 0 -0 -0 -0 -4 -5 -8 -9 -3 1 1 5 4 4 6 6 4 3 2 0 0 0 1 3 7 7 7 8 10 10 9 7 6 5 5 5 6 9 10 9 9 8 9 9 9 9 9 8 7 7 7 7 7 7 8 8 8 9
6 1 4 -1 -4 -3 -4 -7 -8 -10 -7 2 6 8 5 3 3 1 -1 -6 -4 -1 1 2 1 0 -0 -0 0 1 2 -2 -3 -3 -3 -3 -1 4 7 5 5 5 6 4 2 -0 -0 0 2 4 7 8 8 8 8 8 8 7 6 6 6 4 5 6 9 10 9 8 8 8 8 9 9 9 8 8 7 7 7 7 7 7 8 8 9 10
3 4 1 -2 -2 -3 -3 -6 -9 -6 -7 4 7 4 2 1 2 -1 -10 -13 -4 0 2 1 0 -1 0 1 2 3 1 -3 -3 -0 -2 0 2 2 5 4 4 6 6 4 -1 -1 1 5 8 8 7 6 6 5 5 5 5 6 5 4 5 4 6 8 9 9 8 8 8 9 9 9 9 9 8 7 7 7 6 7 7 7 7 8 8 9
3 2 1 -3 -4 -3 -2 -6 -6 -5 1 7 5 1 2 2 -0 -6 -12 -7 3 4 2 0 0 0 2 3 2 0 2 3 2 0 -1 -1 3 4 4 5 5 4 4 4 2 6 2 5 8 8 5 4 4 4 4 5 5 4 4 4 5 7 8 8 8 7 7 8 8 9 8 8 8 8 7 7 6 6 6 6 6 7 7 7 8 9
3 3 -0 -1 -4 -4 -4 -6 -8 -5 0 9 1 3 2 0 -7 -9 -1 6 6 2 0 -0 1 3 2 3 3 3 1 -0 1 -1 1 4 2 3 3 3 2 2 2 5 6 3 0 5 6 5 4 4 3 4 4 4 3 4 4 6 6 6 7 7 8 8 8 8 8 8 8 8 8 7 6 6 6 5 5 6 6 7 7 7 8 8
3 2 -3 -4 -1 -1 -2 -6 -8 -12 -4 6 5 4 4 -0 -1 4 6 6 2 -0 -1 1 4 3 5 4 3 2 2 1 -1 1 2 1 4 3 2 1 1 1 2 3 2 1 4 5 6 5 5 4 4 3 4 4 4 4 5 4 4 6 7 7 8 8 7 7 7 7 7 7 7 6 5 5 5 5 4 5 5 6 7 7 8 8
7 1 -2 -2 1 -4 -6 -8 -10 -6 2 7 4 -0 4 5 7 6 3 1 1 -0 1 3 3 4 3 2 1 1 2 4 3 2 3 5 3 2 1 1 0 0 2 4 4 3 5 5 6 5 4 4 4 4 4 4 4 4 4 3 6 7 7 8 8 8 7 6 6 6 6 5 5 4 4 4 4 4 4 4 5 5 5 6 6 6
7 5 6 1 3 3 -2 -2 3 6 3 0 -0 2 5 5 4 2 1 -0 -0 0 3 5 4 3 2 2 3 4 4 5 4 4 5 4 4 2 1 1 1 3 3 4 2 2 7 6 4 3 3 4 3 4 4 5 4 4 3 4 6 7 8 8 7 6 5 5 5 4 4 4 4 3 3 3 3 3 3 4 4 4 5 5 5 5
9 9 5 5 4 4 2 4 3 -1 -1 -2 -2 -1 1 1 1 -0 -1 -1 1 2 4 5 4 4 4 5 5 3 2 1 3 4 4 4 3 2 3 3 4 4 3 2 3 6 5 4 3 3 3 2 2 3 4 5 5 4 4 6 7 8 7 6 5 4 3 3 3 3 3 3 2 2 3 3 3 3 3 3 3 3 3 3 3 4
7 6 4 3 3 0 -3 -2 -1 -2 -4 -5 -3 -0 1 -0 -1 -1 -1 1 2 4 4 5 5 5 6 5 4 2 1 3 4 3 2 2 1 0 2 3 4 3 2 4 4 4 3 3 2 3 2 1 2 3 4 4 5 5 6 6 7 7 5 4 3 2 2 1 1 1 2 1 0 0 1 1 1 2 2 2 2 2 2 2 2 3
3 6 5 1 0 -0 -1 -0 -3 -5 -3 -2 1 1 -0 -1 -1 -1 1 2 4 5 5 6 6 4 4 3 2 1 3 5 3 2 1 0 1 2 3 4 4 3 5 4 3 3 2 2 2 1 1 1 2 3 3 4 4 5 6 6 6 5 3 2 1 0 -0 -0 0 -0 0 -1 -0 -0 -1 0 0 -0 -0 0 1 1 1 1 2 2
9 9 1 4 2 1 -1 -3 -2 1 1 1 1 1 -0 -1 0 1 2 3 4 3 4 4 1 1 3 3 0 3 5 3 2 1 1 2 3 3 4 4 4 4 4 3 2 3 1 2 1 0 0 1 2 3 3 3 4 5 4 5 5 3 2 0 -0 -1 -1 -1 -1 -2 -1 -2 -2 -2 -2 -1 -0 -0 -0 -0 0 -0 0 2 2 2
6 3 5 4 0 -2 -3 -2 3 -1 -2 -0 1 1 1 1 1 2 2 3 2 3 2 -1 -2 1 3 2 3 5 4 3 1 2 2 2 2 2 2 3 4 3 2 2 2 2 2 1 0 0 0 1 2 2 3 3 3 3 4 4 3 3 1 -0 -1 -2 -2 -2 -3 -3 -4 -4 -4 -2 -2 -2 -3 -2 -1 1 3 3 2 2 5 6
7 8 7 3 2 1 4 5 5 4 1 1 1 1 1 1 2 2 1 0 2 2 -2 -1 1 3 3 2 4 3 1 1 1 2 2 2 2 2 4 3 2 1 1 1 1 1 0 -0 0 0 -0 1 2 2 2 2 2 2 3 3 3 2 1 -0 -2 -3 -4 -4 -4 -4 -4 -4 -4 -3 -4 -3 -3 -3 -3 -3 -1 4 5 6 6 6